Find Starlink 30279

NORAD ID: 57885 Int'l Des: 2023-144 Owner: SPXS Country: US Constellation: starlink operational
LEOCIRCULAR

当前视图

正在加载3D地球...

About Starlink 30279

Starlink 30279 (NORAD 57885) is a starlink constellation satellite (v2 mini) launched Sep 16, 2023 by SPXS of US. It operates in LEO, CIRCULAR orbit with a mass of 730.00 kg.

关于 Starlink 30279

正在加载描述...

即将过境

Passes for default location (London). Set your location on the main map for personalized predictions.

高度历史

Loading altitude history...

两行轨道根数

1 57885U 23144X 26170.77297772 -.00000300 00000-0 -13719-5 0 9992
2 57885 43.0039 68.3563 0001260 277.5402 82.5306 15.27578536153193
Epoch: Jun 19, 2026 • Age: 14 hours

当前状态

高度 482.2 km
速度 7.63 km/s
星下点 5.73°N, 31.91°E
发射日期 Sep 16, 2023
运行时间 2.7 years
类型 internet

技术详情

分类 Payload
质量 730.00 kg
干质量 700.00 kg
总质量 730.00 kg
长度 0.30 m
直径 4.10 m
跨度 29.00 m
形状 Box + pan
制造商 SPXS
平台类型 Starlink V2M
阶段状态 In Orbit
所有者/国家 SPXS/US

Most Searched